Starlink 30467

operational
NORAD ID: 57895 Int'l Des: 2023-146 Owner: SPXS Country: US Constellation: starlink
LEOCIRCULAR

Über Starlink 30467

Beschreibung wird geladen...

Live-Position

3D-Globus wird geladen...

Nächste Überflüge

Höhenverlauf

Altitude vs Time

uPlot chart will show altitude changes over time

Zweizeiliger Elementsatz

1 57895U 23146E 25351.12027041 .00001088 00000-0 95568-4 0 9997
2 57895 43.0029 42.1787 0001221 284.1240 75.9466 15.02541490124645
Epoch: 17. Dez. 2025 • Age: 17 hours

Aktueller Status

Höhe 567.0 km
Geschwindigkeit 7.58 km/s
Subsatellitenpunkt -31.89°S, 33.21°W
Startdatum 20. Sept. 2023
Alter 2.2 years
Typ internet

Technische Details

Klassifizierung Payload
Masse 730.00 kg
Trockenmasse 700.00 kg
Gesamtmasse 730.00 kg
Länge 0.30 m
Durchmesser 4.10 m
Spannweite 29.00 m
Form Box + pan
Hersteller SPXS
Bus-Typ Starlink V2M
Phasenstatus In Orbit
Besitzer/Staat SPXS/US

Große Konstellationen

Loading constellations...